Flag for Germany Weather past 2 weeks in Konstanz, Baden-Württemberg, Germany

Now
74 °F

Overcast.


Feels Like: 76 °F
Forecast: 54 / 75 °F
Wind: 2 mph from Northwest

Location: Konstanz

Current Time: Sep 19, 2014 at 4:54:18 PM

Latest Report: Sep 19, 2014 at 4:00 PM


Visibility: 28 mi

Pressure: 29.91 "Hg

Humidity: 62%

Dew point: 60 °F

Location of KonstanzLocation

Historic Weather in Konstanz — Graph

°F

Konstanz temperature yesterday

Maximum temperature yesterday: 71 °F (at 4:00 PM)
Minimum temperature yesterday: 57 °F (at 6:00 AM)
Average temperature yesterday: 63 °F

Past Weeks' High & Low Weather Summary

 TemperatureHumidityPressure
High79 °F (Sep 6, 5:00 PM)99% (Sep 7, 7:00 AM)30.15 "Hg (Sep 7, 7:00 AM)
Low49 °F (Sep 12, 7:00 AM)43% (Sep 6, 6:00 PM)29.80 "Hg (Sep 17, 6:00 PM)
Average63 °F82%29.98 "Hg
* Reported Sep 4 3:00 PM — Sep 19 3:00 PM, Konstanz, Weather by CustomWeather, © 2014

Note: Actual official high and low records may vary slightly from our data, if they occured in-between our weather recording intervals... More about our weather records

Advertising

Konstanz weather history for previous 24 hours

 ConditionsComfort  
Time TempWeatherWind HumidityBarometerVisibility
3:00 PM
Sep 19
75 °FOvercast.1 mph54%29.91 "Hg28 mi
2:00 PM76 °FPartly sunny.1 mph50%29.91 "Hg16 mi
1:00 PM73 °FPartly sunny.2 mph56%29.93 "Hg11 mi
12:00 PM71 °FPartly sunny.1 mph62%29.94 "Hg9 mi
11:00 AM66 °FOvercast.2 mph80%29.95 "Hg4 mi
10:00 AM64 °FFog.1 mph90%29.96 "Hg2 mi
9:00 AM61 °FFog.2 mph96%29.97 "Hg2 mi
8:00 AM61 °FFog.1 mph98%29.96 "Hg3 mi
7:00 AM60 °FFog.1 mph98%29.94 "Hg4 mi
6:00 AM60 °FPassing clouds.1 mph96%29.93 "Hg6 mi
5:00 AM60 °FPassing clouds.2 mph96%29.94 "Hg4 mi
4:00 AM60 °FPassing clouds.2 mph98%29.94 "Hg3 mi
3:00 AM61 °FOvercast.1 mph98%29.93 "Hg3 mi
2:00 AM61 °FFog.2 mph97%29.93 "Hg3 mi
1:00 AM61 °FPassing clouds.2 mph97%29.93 "Hg5 mi
12:00 AM61 °FClear.2 mph97%29.93 "Hg7 mi
11:00 PM
Sep 18
62 °FFog.1 mph97%29.93 "Hg3 mi
10:00 PM62 °FFog.2 mph96%29.93 "Hg3 mi
9:00 PM64 °FPassing clouds.1 mph93%29.91 "Hg11 mi
8:00 PM65 °FPassing clouds.1 mph91%29.90 "Hg12 mi
7:00 PM66 °FOvercast.2 mph88%29.90 "Hg12 mi
6:00 PM69 °FLight rain. Overcast.2 mph80%29.89 "Hg10 mi
5:00 PM71 °FOvercast.1 mph73%29.87 "Hg9 mi
4:00 PM71 °FOvercast.1 mph73%29.86 "Hg9 mi
Weather by CustomWeather, © 2014

See weather overviewHow to use our weather pages